Retour au catalogue

COSMOS 2251 DEB

ActifVLEO
NORAD 35602·DEBRIS·🇷🇺 Russia

Lancé Jun 16, 1993 depuis Plesetsk Cosmodrome

Loading…

Prochains Passages (prochaines 24 heures)

TLE

VieillissantSource: Space-Track

Époque: Sep 13, 2026, 09:40 UTC

1 35602U 93036AMV 26256.40333277  .00015261  00000-0  27901-3 0  9994
2 35602  73.9904 305.7780 0070418 297.2624  74.6192 15.46573880943239

Suivez COSMOS 2251 DEB en temps réel avec AllMySat

Download on the App Store